<?xml version="1.0" encoding="UTF-8" standalone="no" ?>
<gpx xmlns="http://www.topografix.com/GPX/1/1" xmlns:xsi="http://www.w3.org/2001/XMLSchema-instance" xsi:schemaLocation="http://www.topografix.com/GPX/1/1 http://www.topografix.com/GPX/1/1/gpx.xsd" version="1.1" creator="VisuGPX - https://www.visugpx.com">
  <metadata>
    <name>circuits VTT</name>
  </metadata>
  <trk>
    <name><![CDATA[03 Les Caunes - TraceGps issued]]></name>
    <extensions>
      <line xmlns="http://www.topografix.com/GPX/gpx_style/0/2">
        <color>FFFF00</color>
        <width>4</width>
      </line>
    </extensions>
    <trkseg>
      <trkpt lat="43.10844" lon="3.0899">
        <ele>0.300725</ele>
        <time>2010-10-20T15:02:59Z</time>
      </trkpt>
      <trkpt lat="43.10872" lon="3.09">
        <ele>0.850004</ele>
        <time>2010-10-20T15:02:59Z</time>
      </trkpt>
      <trkpt lat="43.10905" lon="3.09013">
        <ele>0.949951</ele>
        <time>2010-10-20T15:02:59Z</time>
      </trkpt>
      <trkpt lat="43.10942" lon="3.09026">
        <ele>0.276634</ele>
        <time>2010-10-20T15:02:59Z</time>
      </trkpt>
      <trkpt lat="43.10974" lon="3.0904">
        <ele>0.170585</ele>
        <time>2010-10-20T15:02:59Z</time>
      </trkpt>
      <trkpt lat="43.11011" lon="3.09051">
        <ele>0.662441</ele>
        <time>2010-10-20T15:02:59Z</time>
      </trkpt>
      <trkpt lat="43.11056" lon="3.0907">
        <ele>0.962434</ele>
        <time>2010-10-20T15:02:59Z</time>
      </trkpt>
      <trkpt lat="43.11092" lon="3.09083">
        <ele>1.162564</ele>
        <time>2010-10-20T15:02:59Z</time>
      </trkpt>
      <trkpt lat="43.11132" lon="3.09099">
        <ele>1.412456</ele>
        <time>2010-10-20T15:02:59Z</time>
      </trkpt>
      <trkpt lat="43.11162" lon="3.0911">
        <ele>1.587473</ele>
        <time>2010-10-20T15:02:59Z</time>
      </trkpt>
      <trkpt lat="43.11197" lon="3.09124">
        <ele>1.548515</ele>
        <time>2010-10-20T15:02:59Z</time>
      </trkpt>
      <trkpt lat="43.1125" lon="3.09144">
        <ele>1</ele>
        <time>2010-10-20T15:02:59Z</time>
      </trkpt>
      <trkpt lat="43.11291" lon="3.0916">
        <ele>0.587493</ele>
        <time>2010-10-20T15:02:59Z</time>
      </trkpt>
      <trkpt lat="43.11329" lon="3.09177">
        <ele>1.4</ele>
        <time>2010-10-20T15:02:59Z</time>
      </trkpt>
      <trkpt lat="43.11381" lon="3.09197">
        <ele>0.403766</ele>
        <time>2010-10-20T15:02:59Z</time>
      </trkpt>
      <trkpt lat="43.11404" lon="3.09207">
        <ele>0.949926</ele>
        <time>2010-10-20T15:02:59Z</time>
      </trkpt>
      <trkpt lat="43.11424" lon="3.09237">
        <ele>1.232466</ele>
        <time>2010-10-20T15:02:59Z</time>
      </trkpt>
      <trkpt lat="43.11432" lon="3.09268">
        <ele>1.587435</ele>
        <time>2010-10-20T15:02:59Z</time>
      </trkpt>
      <trkpt lat="43.11433" lon="3.09305">
        <ele>1.612469</ele>
        <time>2010-10-20T15:02:59Z</time>
      </trkpt>
      <trkpt lat="43.11459" lon="3.09342">
        <ele>2</ele>
        <time>2010-10-20T15:02:59Z</time>
      </trkpt>
      <trkpt lat="43.11498" lon="3.09389">
        <ele>2</ele>
        <time>2010-10-20T15:02:59Z</time>
      </trkpt>
      <trkpt lat="43.1153" lon="3.0943">
        <ele>2</ele>
        <time>2010-10-20T15:02:59Z</time>
      </trkpt>
      <trkpt lat="43.11548" lon="3.09453">
        <ele>2.187606</ele>
        <time>2010-10-20T15:02:59Z</time>
      </trkpt>
      <trkpt lat="43.11557" lon="3.09476">
        <ele>2.39992</ele>
        <time>2010-10-20T15:02:59Z</time>
      </trkpt>
      <trkpt lat="43.11561" lon="3.09495">
        <ele>2.487529</ele>
        <time>2010-10-20T15:02:59Z</time>
      </trkpt>
      <trkpt lat="43.1156" lon="3.0952">
        <ele>2.475033</ele>
        <time>2010-10-20T15:02:59Z</time>
      </trkpt>
      <trkpt lat="43.11547" lon="3.09557">
        <ele>2.187402</ele>
        <time>2010-10-20T15:02:59Z</time>
      </trkpt>
      <trkpt lat="43.11537" lon="3.09585">
        <ele>2</ele>
        <time>2010-10-20T15:02:59Z</time>
      </trkpt>
      <trkpt lat="43.11536" lon="3.09612">
        <ele>2</ele>
        <time>2010-10-20T15:02:59Z</time>
      </trkpt>
      <trkpt lat="43.11537" lon="3.09655">
        <ele>1.990001</ele>
        <time>2010-10-20T15:02:59Z</time>
      </trkpt>
      <trkpt lat="43.11535" lon="3.09701">
        <ele>1.950076</ele>
        <time>2010-10-20T15:02:59Z</time>
      </trkpt>
      <trkpt lat="43.11538" lon="3.09757">
        <ele>2.012553</ele>
        <time>2010-10-20T15:02:59Z</time>
      </trkpt>
      <trkpt lat="43.11542" lon="3.09801">
        <ele>2.112403</ele>
        <time>2010-10-20T15:02:59Z</time>
      </trkpt>
      <trkpt lat="43.11547" lon="3.09862">
        <ele>1.475053</ele>
        <time>2010-10-20T15:02:59Z</time>
      </trkpt>
      <trkpt lat="43.11553" lon="3.09913">
        <ele>1.374968</ele>
        <time>2010-10-20T15:02:59Z</time>
      </trkpt>
      <trkpt lat="43.11559" lon="3.09963">
        <ele>1.512414</ele>
        <time>2010-10-20T15:02:59Z</time>
      </trkpt>
      <trkpt lat="43.11565" lon="3.10009">
        <ele>1.717252</ele>
        <time>2010-10-20T15:02:59Z</time>
      </trkpt>
      <trkpt lat="43.11573" lon="3.1005">
        <ele>1.971587</ele>
        <time>2010-10-20T15:02:59Z</time>
      </trkpt>
      <trkpt lat="43.1158" lon="3.10077">
        <ele>2.000109</ele>
        <time>2010-10-20T15:02:59Z</time>
      </trkpt>
      <trkpt lat="43.11597" lon="3.10115">
        <ele>2.374948</ele>
        <time>2010-10-20T15:02:59Z</time>
      </trkpt>
      <trkpt lat="43.11608" lon="3.10144">
        <ele>2.637586</ele>
        <time>2010-10-20T15:02:59Z</time>
      </trkpt>
      <trkpt lat="43.11618" lon="3.10164">
        <ele>2.850012</ele>
        <time>2010-10-20T15:02:59Z</time>
      </trkpt>
      <trkpt lat="43.11623" lon="3.10203">
        <ele>2.991448</ele>
        <time>2010-10-20T15:02:59Z</time>
      </trkpt>
      <trkpt lat="43.1163" lon="3.10248">
        <ele>2.950028</ele>
        <time>2010-10-20T15:02:59Z</time>
      </trkpt>
      <trkpt lat="43.11636" lon="3.10282">
        <ele>2.399956</ele>
        <time>2010-10-20T15:02:59Z</time>
      </trkpt>
      <trkpt lat="43.11638" lon="3.10314">
        <ele>2</ele>
        <time>2010-10-20T15:02:59Z</time>
      </trkpt>
      <trkpt lat="43.11641" lon="3.10326">
        <ele>2</ele>
        <time>2010-10-20T15:02:59Z</time>
      </trkpt>
      <trkpt lat="43.11652" lon="3.10332">
        <ele>2</ele>
        <time>2010-10-20T15:02:59Z</time>
      </trkpt>
      <trkpt lat="43.1168" lon="3.1034">
        <ele>2.127212</ele>
        <time>2010-10-20T15:02:59Z</time>
      </trkpt>
      <trkpt lat="43.11698" lon="3.1035">
        <ele>2.210888</ele>
        <time>2010-10-20T15:02:59Z</time>
      </trkpt>
      <trkpt lat="43.11719" lon="3.10363">
        <ele>2.100015</ele>
        <time>2010-10-20T15:02:59Z</time>
      </trkpt>
      <trkpt lat="43.11741" lon="3.1038">
        <ele>2</ele>
        <time>2010-10-20T15:02:59Z</time>
      </trkpt>
      <trkpt lat="43.11763" lon="3.104">
        <ele>2.064043</ele>
        <time>2010-10-20T15:02:59Z</time>
      </trkpt>
      <trkpt lat="43.11781" lon="3.10409">
        <ele>2.190305</ele>
        <time>2010-10-20T15:02:59Z</time>
      </trkpt>
      <trkpt lat="43.11802" lon="3.10413">
        <ele>2.296261</ele>
        <time>2010-10-20T15:02:59Z</time>
      </trkpt>
      <trkpt lat="43.11818" lon="3.10413">
        <ele>2.553154</ele>
        <time>2010-10-20T15:02:59Z</time>
      </trkpt>
      <trkpt lat="43.1183" lon="3.10405">
        <ele>2.789113</ele>
        <time>2010-10-20T15:02:59Z</time>
      </trkpt>
      <trkpt lat="43.11851" lon="3.10392">
        <ele>3</ele>
        <time>2010-10-20T15:02:59Z</time>
      </trkpt>
      <trkpt lat="43.11864" lon="3.10378">
        <ele>3</ele>
        <time>2010-10-20T15:02:59Z</time>
      </trkpt>
      <trkpt lat="43.11883" lon="3.1036">
        <ele>3.149921</ele>
        <time>2010-10-20T15:02:59Z</time>
      </trkpt>
      <trkpt lat="43.11904" lon="3.10339">
        <ele>3.653146</ele>
        <time>2010-10-20T15:02:59Z</time>
      </trkpt>
      <trkpt lat="43.1192" lon="3.10314">
        <ele>3.97497</ele>
        <time>2010-10-20T15:02:59Z</time>
      </trkpt>
      <trkpt lat="43.11937" lon="3.10293">
        <ele>4</ele>
        <time>2010-10-20T15:02:59Z</time>
      </trkpt>
      <trkpt lat="43.11955" lon="3.1027">
        <ele>4.248477</ele>
        <time>2010-10-20T15:02:59Z</time>
      </trkpt>
      <trkpt lat="43.11971" lon="3.10251">
        <ele>4.728203</ele>
        <time>2010-10-20T15:02:59Z</time>
      </trkpt>
      <trkpt lat="43.11993" lon="3.10212">
        <ele>5</ele>
        <time>2010-10-20T15:02:59Z</time>
      </trkpt>
      <trkpt lat="43.12013" lon="3.10181">
        <ele>5.091051</ele>
        <time>2010-10-20T15:02:59Z</time>
      </trkpt>
      <trkpt lat="43.1203" lon="3.10158">
        <ele>5.524591</ele>
        <time>2010-10-20T15:02:59Z</time>
      </trkpt>
      <trkpt lat="43.12046" lon="3.10135">
        <ele>5.929692</ele>
        <time>2010-10-20T15:02:59Z</time>
      </trkpt>
      <trkpt lat="43.12056" lon="3.10112">
        <ele>6.262448</ele>
        <time>2010-10-20T15:02:59Z</time>
      </trkpt>
      <trkpt lat="43.1206" lon="3.10106">
        <ele>6.362452</ele>
        <time>2010-10-20T15:02:59Z</time>
      </trkpt>
      <trkpt lat="43.12078" lon="3.1013">
        <ele>6.085267</ele>
        <time>2010-10-20T15:02:59Z</time>
      </trkpt>
      <trkpt lat="43.12087" lon="3.10143">
        <ele>6.2325</ele>
        <time>2010-10-20T15:02:59Z</time>
      </trkpt>
      <trkpt lat="43.12081" lon="3.10157">
        <ele>6.094043</ele>
        <time>2010-10-20T15:02:59Z</time>
      </trkpt>
      <trkpt lat="43.12055" lon="3.10191">
        <ele>5.585051</ele>
        <time>2010-10-20T15:02:59Z</time>
      </trkpt>
      <trkpt lat="43.12028" lon="3.10236">
        <ele>5</ele>
        <time>2010-10-20T15:02:59Z</time>
      </trkpt>
      <trkpt lat="43.12008" lon="3.10272">
        <ele>4.842482</ele>
        <time>2010-10-20T15:02:59Z</time>
      </trkpt>
      <trkpt lat="43.11984" lon="3.10314">
        <ele>4.037606</ele>
        <time>2010-10-20T15:02:59Z</time>
      </trkpt>
      <trkpt lat="43.11966" lon="3.10346">
        <ele>4</ele>
        <time>2010-10-20T15:02:59Z</time>
      </trkpt>
      <trkpt lat="43.11942" lon="3.10385">
        <ele>4</ele>
        <time>2010-10-20T15:02:59Z</time>
      </trkpt>
      <trkpt lat="43.11923" lon="3.10416">
        <ele>3.687483</ele>
        <time>2010-10-20T15:02:59Z</time>
      </trkpt>
      <trkpt lat="43.1191" lon="3.10445">
        <ele>3.399916</ele>
        <time>2010-10-20T15:02:59Z</time>
      </trkpt>
      <trkpt lat="43.11905" lon="3.10458">
        <ele>3.287562</ele>
        <time>2010-10-20T15:02:59Z</time>
      </trkpt>
      <trkpt lat="43.11907" lon="3.1047">
        <ele>3.337601</ele>
        <time>2010-10-20T15:02:59Z</time>
      </trkpt>
      <trkpt lat="43.11915" lon="3.1048">
        <ele>3.525078</ele>
        <time>2010-10-20T15:02:59Z</time>
      </trkpt>
      <trkpt lat="43.11941" lon="3.10484">
        <ele>4</ele>
        <time>2010-10-20T15:02:59Z</time>
      </trkpt>
      <trkpt lat="43.11976" lon="3.10507">
        <ele>3.976557</ele>
        <time>2010-10-20T15:02:59Z</time>
      </trkpt>
      <trkpt lat="43.12007" lon="3.10529">
        <ele>4</ele>
        <time>2010-10-20T15:02:59Z</time>
      </trkpt>
      <trkpt lat="43.12023" lon="3.10541">
        <ele>4</ele>
        <time>2010-10-20T15:02:59Z</time>
      </trkpt>
      <trkpt lat="43.12036" lon="3.10549">
        <ele>4.030947</ele>
        <time>2010-10-20T15:02:59Z</time>
      </trkpt>
      <trkpt lat="43.12062" lon="3.10559">
        <ele>4</ele>
        <time>2010-10-20T15:02:59Z</time>
      </trkpt>
      <trkpt lat="43.12087" lon="3.10564">
        <ele>4</ele>
        <time>2010-10-20T15:02:59Z</time>
      </trkpt>
      <trkpt lat="43.12122" lon="3.10572">
        <ele>4</ele>
        <time>2010-10-20T15:02:59Z</time>
      </trkpt>
      <trkpt lat="43.12137" lon="3.10578">
        <ele>4</ele>
        <time>2010-10-20T15:02:59Z</time>
      </trkpt>
      <trkpt lat="43.12164" lon="3.1059">
        <ele>4</ele>
        <time>2010-10-20T15:02:59Z</time>
      </trkpt>
      <trkpt lat="43.12178" lon="3.10599">
        <ele>4</ele>
        <time>2010-10-20T15:02:59Z</time>
      </trkpt>
      <trkpt lat="43.12185" lon="3.10601">
        <ele>4</ele>
        <time>2010-10-20T15:02:59Z</time>
      </trkpt>
      <trkpt lat="43.12199" lon="3.10582">
        <ele>4</ele>
        <time>2010-10-20T15:02:59Z</time>
      </trkpt>
      <trkpt lat="43.12212" lon="3.10567">
        <ele>4.017197</ele>
        <time>2010-10-20T15:02:59Z</time>
      </trkpt>
      <trkpt lat="43.12225" lon="3.10556">
        <ele>3.973475</ele>
        <time>2010-10-20T15:02:59Z</time>
      </trkpt>
      <trkpt lat="43.12236" lon="3.10545">
        <ele>3.828162</ele>
        <time>2010-10-20T15:02:59Z</time>
      </trkpt>
      <trkpt lat="43.12247" lon="3.10539">
        <ele>3.676314</ele>
        <time>2010-10-20T15:02:59Z</time>
      </trkpt>
      <trkpt lat="43.12276" lon="3.10529">
        <ele>3.775814</ele>
        <time>2010-10-20T15:02:59Z</time>
      </trkpt>
      <trkpt lat="43.12298" lon="3.1052">
        <ele>4.062472</ele>
        <time>2010-10-20T15:02:59Z</time>
      </trkpt>
      <trkpt lat="43.12314" lon="3.10516">
        <ele>4.412591</ele>
        <time>2010-10-20T15:02:59Z</time>
      </trkpt>
      <trkpt lat="43.12331" lon="3.10505">
        <ele>4.774969</ele>
        <time>2010-10-20T15:02:59Z</time>
      </trkpt>
      <trkpt lat="43.1235" lon="3.10494">
        <ele>5.637477</ele>
        <time>2010-10-20T15:02:59Z</time>
      </trkpt>
      <trkpt lat="43.12365" lon="3.1048">
        <ele>6.649682</ele>
        <time>2010-10-20T15:02:59Z</time>
      </trkpt>
      <trkpt lat="43.12376" lon="3.10468">
        <ele>7.324745</ele>
        <time>2010-10-20T15:02:59Z</time>
      </trkpt>
      <trkpt lat="43.12383" lon="3.10453">
        <ele>7.812311</ele>
        <time>2010-10-20T15:02:59Z</time>
      </trkpt>
      <trkpt lat="43.12391" lon="3.10436">
        <ele>8.399691</ele>
        <time>2010-10-20T15:02:59Z</time>
      </trkpt>
      <trkpt lat="43.12397" lon="3.10417">
        <ele>8.624754</ele>
        <time>2010-10-20T15:02:59Z</time>
      </trkpt>
      <trkpt lat="43.12397" lon="3.10417">
        <ele>8.574843</ele>
        <time>2010-10-20T15:02:59Z</time>
      </trkpt>
      <trkpt lat="43.12397" lon="3.10417">
        <ele>8.624754</ele>
        <time>2010-10-20T15:02:59Z</time>
      </trkpt>
      <trkpt lat="43.12399" lon="3.10402">
        <ele>8.537413</ele>
        <time>2010-10-20T15:02:59Z</time>
      </trkpt>
      <trkpt lat="43.12399" lon="3.1038">
        <ele>8.175012</ele>
        <time>2010-10-20T15:02:59Z</time>
      </trkpt>
      <trkpt lat="43.124" lon="3.10364">
        <ele>8.271508</ele>
        <time>2010-10-20T15:02:59Z</time>
      </trkpt>
      <trkpt lat="43.12403" lon="3.10355">
        <ele>8.640984</ele>
        <time>2010-10-20T15:02:59Z</time>
      </trkpt>
      <trkpt lat="43.12415" lon="3.10351">
        <ele>9.836802</ele>
        <time>2010-10-20T15:02:59Z</time>
      </trkpt>
      <trkpt lat="43.12431" lon="3.10335">
        <ele>11.653873</ele>
        <time>2010-10-20T15:02:59Z</time>
      </trkpt>
      <trkpt lat="43.12445" lon="3.10324">
        <ele>13.700424</ele>
        <time>2010-10-20T15:02:59Z</time>
      </trkpt>
      <trkpt lat="43.1247" lon="3.10307">
        <ele>17.222166</ele>
        <time>2010-10-20T15:02:59Z</time>
      </trkpt>
      <trkpt lat="43.12482" lon="3.103">
        <ele>18.750008</ele>
        <time>2010-10-20T15:02:59Z</time>
      </trkpt>
      <trkpt lat="43.12492" lon="3.10297">
        <ele>19.59901</ele>
        <time>2010-10-20T15:02:59Z</time>
      </trkpt>
      <trkpt lat="43.12502" lon="3.10291">
        <ele>20.644045</ele>
        <time>2010-10-20T15:02:59Z</time>
      </trkpt>
      <trkpt lat="43.12513" lon="3.10305">
        <ele>21.028212</ele>
        <time>2010-10-20T15:02:59Z</time>
      </trkpt>
      <trkpt lat="43.12511" lon="3.10325">
        <ele>20.299883</ele>
        <time>2010-10-20T15:02:59Z</time>
      </trkpt>
      <trkpt lat="43.12512" lon="3.10361">
        <ele>20.213655</ele>
        <time>2010-10-20T15:02:59Z</time>
      </trkpt>
      <trkpt lat="43.12509" lon="3.10396">
        <ele>19.950111</ele>
        <time>2010-10-20T15:02:59Z</time>
      </trkpt>
      <trkpt lat="43.12506" lon="3.10413">
        <ele>19.700418</ele>
        <time>2010-10-20T15:02:59Z</time>
      </trkpt>
      <trkpt lat="43.1251" lon="3.10425">
        <ele>20.049683</ele>
        <time>2010-10-20T15:02:59Z</time>
      </trkpt>
      <trkpt lat="43.12521" lon="3.10426">
        <ele>20.974903</ele>
        <time>2010-10-20T15:02:59Z</time>
      </trkpt>
      <trkpt lat="43.12535" lon="3.10425">
        <ele>20.406507</ele>
        <time>2010-10-20T15:02:59Z</time>
      </trkpt>
      <trkpt lat="43.12563" lon="3.10423">
        <ele>19.31275</ele>
        <time>2010-10-20T15:02:59Z</time>
      </trkpt>
      <trkpt lat="43.12566" lon="3.10434">
        <ele>18.500265</ele>
        <time>2010-10-20T15:02:59Z</time>
      </trkpt>
      <trkpt lat="43.12568" lon="3.10454">
        <ele>16.849577</ele>
        <time>2010-10-20T15:02:59Z</time>
      </trkpt>
      <trkpt lat="43.12568" lon="3.10475">
        <ele>15.541867</ele>
        <time>2010-10-20T15:02:59Z</time>
      </trkpt>
      <trkpt lat="43.1257" lon="3.10494">
        <ele>14.11611</ele>
        <time>2010-10-20T15:02:59Z</time>
      </trkpt>
      <trkpt lat="43.12581" lon="3.10508">
        <ele>12.408604</ele>
        <time>2010-10-20T15:02:59Z</time>
      </trkpt>
      <trkpt lat="43.12593" lon="3.10516">
        <ele>11.407614</ele>
        <time>2010-10-20T15:02:59Z</time>
      </trkpt>
      <trkpt lat="43.12603" lon="3.10523">
        <ele>10.896979</ele>
        <time>2010-10-20T15:02:59Z</time>
      </trkpt>
      <trkpt lat="43.12609" lon="3.10513">
        <ele>10.373697</ele>
        <time>2010-10-20T15:02:59Z</time>
      </trkpt>
      <trkpt lat="43.12626" lon="3.10496">
        <ele>11.525581</ele>
        <time>2010-10-20T15:02:59Z</time>
      </trkpt>
      <trkpt lat="43.12646" lon="3.10477">
        <ele>12.660098</ele>
        <time>2010-10-20T15:02:59Z</time>
      </trkpt>
      <trkpt lat="43.12667" lon="3.10461">
        <ele>13.468981</ele>
        <time>2010-10-20T15:02:59Z</time>
      </trkpt>
      <trkpt lat="43.12689" lon="3.10437">
        <ele>14.238947</ele>
        <time>2010-10-20T15:02:59Z</time>
      </trkpt>
      <trkpt lat="43.12711" lon="3.10415">
        <ele>15.383098</ele>
        <time>2010-10-20T15:02:59Z</time>
      </trkpt>
      <trkpt lat="43.12729" lon="3.10405">
        <ele>15.693271</ele>
        <time>2010-10-20T15:02:59Z</time>
      </trkpt>
      <trkpt lat="43.12749" lon="3.10387">
        <ele>15.265748</ele>
        <time>2010-10-20T15:02:59Z</time>
      </trkpt>
      <trkpt lat="43.1276" lon="3.10385">
        <ele>15.471594</ele>
        <time>2010-10-20T15:02:59Z</time>
      </trkpt>
      <trkpt lat="43.12778" lon="3.10384">
        <ele>15.785672</ele>
        <time>2010-10-20T15:02:59Z</time>
      </trkpt>
      <trkpt lat="43.12789" lon="3.10388">
        <ele>16.475952</ele>
        <time>2010-10-20T15:02:59Z</time>
      </trkpt>
      <trkpt lat="43.12803" lon="3.10413">
        <ele>19.20306</ele>
        <time>2010-10-20T15:02:59Z</time>
      </trkpt>
      <trkpt lat="43.12825" lon="3.10432">
        <ele>20.456215</ele>
        <time>2010-10-20T15:02:59Z</time>
      </trkpt>
      <trkpt lat="43.12842" lon="3.10446">
        <ele>20.791784</ele>
        <time>2010-10-20T15:02:59Z</time>
      </trkpt>
      <trkpt lat="43.12856" lon="3.10453">
        <ele>21.065239</ele>
        <time>2010-10-20T15:02:59Z</time>
      </trkpt>
      <trkpt lat="43.12873" lon="3.10457">
        <ele>20.822062</ele>
        <time>2010-10-20T15:02:59Z</time>
      </trkpt>
      <trkpt lat="43.12887" lon="3.10455">
        <ele>20.377699</ele>
        <time>2010-10-20T15:02:59Z</time>
      </trkpt>
      <trkpt lat="43.12904" lon="3.10436">
        <ele>19.79336</ele>
        <time>2010-10-20T15:02:59Z</time>
      </trkpt>
      <trkpt lat="43.12921" lon="3.10412">
        <ele>20.518806</ele>
        <time>2010-10-20T15:02:59Z</time>
      </trkpt>
      <trkpt lat="43.12934" lon="3.10398">
        <ele>20.935251</ele>
        <time>2010-10-20T15:02:59Z</time>
      </trkpt>
      <trkpt lat="43.12943" lon="3.10386">
        <ele>21.400026</ele>
        <time>2010-10-20T15:02:59Z</time>
      </trkpt>
      <trkpt lat="43.12963" lon="3.10383">
        <ele>21.875095</ele>
        <time>2010-10-20T15:02:59Z</time>
      </trkpt>
      <trkpt lat="43.1298" lon="3.10388">
        <ele>22.383514</ele>
        <time>2010-10-20T15:02:59Z</time>
      </trkpt>
      <trkpt lat="43.12999" lon="3.10409">
        <ele>22.810703</ele>
        <time>2010-10-20T15:02:59Z</time>
      </trkpt>
      <trkpt lat="43.13019" lon="3.1043">
        <ele>23.558905</ele>
        <time>2010-10-20T15:02:59Z</time>
      </trkpt>
      <trkpt lat="43.1305" lon="3.10457">
        <ele>25.426426</ele>
        <time>2010-10-20T15:02:59Z</time>
      </trkpt>
      <trkpt lat="43.13069" lon="3.10478">
        <ele>26.302517</ele>
        <time>2010-10-20T15:02:59Z</time>
      </trkpt>
      <trkpt lat="43.13092" lon="3.10503">
        <ele>26.815598</ele>
        <time>2010-10-20T15:02:59Z</time>
      </trkpt>
      <trkpt lat="43.13108" lon="3.10512">
        <ele>27.316252</ele>
        <time>2010-10-20T15:02:59Z</time>
      </trkpt>
      <trkpt lat="43.1313" lon="3.10515">
        <ele>28.381058</ele>
        <time>2010-10-20T15:02:59Z</time>
      </trkpt>
      <trkpt lat="43.13146" lon="3.10523">
        <ele>29.324787</ele>
        <time>2010-10-20T15:02:59Z</time>
      </trkpt>
      <trkpt lat="43.13165" lon="3.1054">
        <ele>30.301294</ele>
        <time>2010-10-20T15:02:59Z</time>
      </trkpt>
      <trkpt lat="43.13181" lon="3.10562">
        <ele>30.899359</ele>
        <time>2010-10-20T15:02:59Z</time>
      </trkpt>
      <trkpt lat="43.13186" lon="3.10589">
        <ele>31.830292</ele>
        <time>2010-10-20T15:02:59Z</time>
      </trkpt>
      <trkpt lat="43.13192" lon="3.10607">
        <ele>32.663586</ele>
        <time>2010-10-20T15:02:59Z</time>
      </trkpt>
      <trkpt lat="43.13206" lon="3.10642">
        <ele>34.100067</ele>
        <time>2010-10-20T15:02:59Z</time>
      </trkpt>
      <trkpt lat="43.13224" lon="3.10675">
        <ele>35.287609</ele>
        <time>2010-10-20T15:02:59Z</time>
      </trkpt>
      <trkpt lat="43.13247" lon="3.10703">
        <ele>36.427528</ele>
        <time>2010-10-20T15:02:59Z</time>
      </trkpt>
      <trkpt lat="43.13275" lon="3.10735">
        <ele>37.976746</ele>
        <time>2010-10-20T15:02:59Z</time>
      </trkpt>
      <trkpt lat="43.13301" lon="3.10764">
        <ele>39.417194</ele>
        <time>2010-10-20T15:02:59Z</time>
      </trkpt>
      <trkpt lat="43.13327" lon="3.10788">
        <ele>40.412804</ele>
        <time>2010-10-20T15:02:59Z</time>
      </trkpt>
      <trkpt lat="43.13357" lon="3.10809">
        <ele>40.77523</ele>
        <time>2010-10-20T15:02:59Z</time>
      </trkpt>
      <trkpt lat="43.13379" lon="3.10815">
        <ele>40.732338</ele>
        <time>2010-10-20T15:02:59Z</time>
      </trkpt>
      <trkpt lat="43.13402" lon="3.1082">
        <ele>40.979416</ele>
        <time>2010-10-20T15:02:59Z</time>
      </trkpt>
      <trkpt lat="43.13418" lon="3.10821">
        <ele>41.112225</ele>
        <time>2010-10-20T15:02:59Z</time>
      </trkpt>
      <trkpt lat="43.13434" lon="3.10829">
        <ele>42.574986</ele>
        <time>2010-10-20T15:02:59Z</time>
      </trkpt>
      <trkpt lat="43.13448" lon="3.10833">
        <ele>43.662399</ele>
        <time>2010-10-20T15:02:59Z</time>
      </trkpt>
      <trkpt lat="43.13459" lon="3.10832">
        <ele>44.337482</ele>
        <time>2010-10-20T15:02:59Z</time>
      </trkpt>
      <trkpt lat="43.13468" lon="3.10819">
        <ele>45.255436</ele>
        <time>2010-10-20T15:02:59Z</time>
      </trkpt>
      <trkpt lat="43.13473" lon="3.10799">
        <ele>45.397621</ele>
        <time>2010-10-20T15:02:59Z</time>
      </trkpt>
      <trkpt lat="43.1348" lon="3.10778">
        <ele>45.236416</ele>
        <time>2010-10-20T15:02:59Z</time>
      </trkpt>
      <trkpt lat="43.13487" lon="3.10758">
        <ele>44.627708</ele>
        <time>2010-10-20T15:02:59Z</time>
      </trkpt>
      <trkpt lat="43.1349" lon="3.10733">
        <ele>44.706093</ele>
        <time>2010-10-20T15:02:59Z</time>
      </trkpt>
      <trkpt lat="43.13495" lon="3.10704">
        <ele>44.96933</ele>
        <time>2010-10-20T15:02:59Z</time>
      </trkpt>
      <trkpt lat="43.13498" lon="3.10686">
        <ele>45.647457</ele>
        <time>2010-10-20T15:02:59Z</time>
      </trkpt>
      <trkpt lat="43.13498" lon="3.10671">
        <ele>46.173481</ele>
        <time>2010-10-20T15:02:59Z</time>
      </trkpt>
      <trkpt lat="43.13487" lon="3.10662">
        <ele>45.65799</ele>
        <time>2010-10-20T15:02:59Z</time>
      </trkpt>
      <trkpt lat="43.13472" lon="3.10667">
        <ele>44.269791</ele>
        <time>2010-10-20T15:02:59Z</time>
      </trkpt>
      <trkpt lat="43.13456" lon="3.10665">
        <ele>43.03466</ele>
        <time>2010-10-20T15:02:59Z</time>
      </trkpt>
      <trkpt lat="43.13445" lon="3.10659">
        <ele>42.283974</ele>
        <time>2010-10-20T15:02:59Z</time>
      </trkpt>
      <trkpt lat="43.13436" lon="3.10644">
        <ele>41.819706</ele>
        <time>2010-10-20T15:02:59Z</time>
      </trkpt>
      <trkpt lat="43.13417" lon="3.10619">
        <ele>40.562527</ele>
        <time>2010-10-20T15:02:59Z</time>
      </trkpt>
      <trkpt lat="43.13406" lon="3.10602">
        <ele>40.362564</ele>
        <time>2010-10-20T15:02:59Z</time>
      </trkpt>
      <trkpt lat="43.13394" lon="3.10582">
        <ele>40.187618</ele>
        <time>2010-10-20T15:02:59Z</time>
      </trkpt>
      <trkpt lat="43.13387" lon="3.10571">
        <ele>39.855103</ele>
        <time>2010-10-20T15:02:59Z</time>
      </trkpt>
      <trkpt lat="43.13375" lon="3.10555">
        <ele>39.058117</ele>
        <time>2010-10-20T15:02:59Z</time>
      </trkpt>
      <trkpt lat="43.13363" lon="3.10545">
        <ele>38.434898</ele>
        <time>2010-10-20T15:02:59Z</time>
      </trkpt>
      <trkpt lat="43.13353" lon="3.10543">
        <ele>37.886513</ele>
        <time>2010-10-20T15:02:59Z</time>
      </trkpt>
      <trkpt lat="43.1335" lon="3.1053">
        <ele>37.777069</ele>
        <time>2010-10-20T15:02:59Z</time>
      </trkpt>
      <trkpt lat="43.13345" lon="3.10512">
        <ele>37.683727</ele>
        <time>2010-10-20T15:02:59Z</time>
      </trkpt>
      <trkpt lat="43.13336" lon="3.10499">
        <ele>37.125973</ele>
        <time>2010-10-20T15:02:59Z</time>
      </trkpt>
      <trkpt lat="43.13341" lon="3.10489">
        <ele>37.260143</ele>
        <time>2010-10-20T15:02:59Z</time>
      </trkpt>
      <trkpt lat="43.13343" lon="3.10475">
        <ele>37.195259</ele>
        <time>2010-10-20T15:02:59Z</time>
      </trkpt>
      <trkpt lat="43.13337" lon="3.10457">
        <ele>36.560883</ele>
        <time>2010-10-20T15:02:59Z</time>
      </trkpt>
      <trkpt lat="43.13327" lon="3.10444">
        <ele>35.554276</ele>
        <time>2010-10-20T15:02:59Z</time>
      </trkpt>
      <trkpt lat="43.1332" lon="3.10432">
        <ele>34.685169</ele>
        <time>2010-10-20T15:02:59Z</time>
      </trkpt>
      <trkpt lat="43.13336" lon="3.10418">
        <ele>35.287506</ele>
        <time>2010-10-20T15:02:59Z</time>
      </trkpt>
      <trkpt lat="43.13352" lon="3.1041">
        <ele>36.087635</ele>
        <time>2010-10-20T15:02:59Z</time>
      </trkpt>
      <trkpt lat="43.13364" lon="3.10397">
        <ele>36.462719</ele>
        <time>2010-10-20T15:02:59Z</time>
      </trkpt>
      <trkpt lat="43.13377" lon="3.10388">
        <ele>36.897697</ele>
        <time>2010-10-20T15:02:59Z</time>
      </trkpt>
      <trkpt lat="43.13394" lon="3.10395">
        <ele>38.353405</ele>
        <time>2010-10-20T15:02:59Z</time>
      </trkpt>
      <trkpt lat="43.13405" lon="3.104">
        <ele>39.207478</ele>
        <time>2010-10-20T15:02:59Z</time>
      </trkpt>
      <trkpt lat="43.13417" lon="3.10422">
        <ele>40.362129</ele>
        <time>2010-10-20T15:02:59Z</time>
      </trkpt>
      <trkpt lat="43.13432" lon="3.1044">
        <ele>41.527496</ele>
        <time>2010-10-20T15:02:59Z</time>
      </trkpt>
      <trkpt lat="43.1345" lon="3.1045">
        <ele>42.914192</ele>
        <time>2010-10-20T15:02:59Z</time>
      </trkpt>
      <trkpt lat="43.13476" lon="3.10464">
        <ele>44.228085</ele>
        <time>2010-10-20T15:02:59Z</time>
      </trkpt>
      <trkpt lat="43.1349" lon="3.10477">
        <ele>44.84687</ele>
        <time>2010-10-20T15:02:59Z</time>
      </trkpt>
      <trkpt lat="43.13505" lon="3.10506">
        <ele>46.411736</ele>
        <time>2010-10-20T15:02:59Z</time>
      </trkpt>
      <trkpt lat="43.13518" lon="3.10533">
        <ele>47.758301</ele>
        <time>2010-10-20T15:02:59Z</time>
      </trkpt>
      <trkpt lat="43.13531" lon="3.10564">
        <ele>49.181202</ele>
        <time>2010-10-20T15:02:59Z</time>
      </trkpt>
      <trkpt lat="43.13543" lon="3.10595">
        <ele>50.10194</ele>
        <time>2010-10-20T15:02:59Z</time>
      </trkpt>
      <trkpt lat="43.13556" lon="3.10615">
        <ele>50.508465</ele>
        <time>2010-10-20T15:02:59Z</time>
      </trkpt>
      <trkpt lat="43.13572" lon="3.1064">
        <ele>50.904205</ele>
        <time>2010-10-20T15:02:59Z</time>
      </trkpt>
      <trkpt lat="43.13585" lon="3.10658">
        <ele>52.402584</ele>
        <time>2010-10-20T15:02:59Z</time>
      </trkpt>
      <trkpt lat="43.13593" lon="3.10677">
        <ele>54.1147</ele>
        <time>2010-10-20T15:02:59Z</time>
      </trkpt>
      <trkpt lat="43.13606" lon="3.10685">
        <ele>55.829559</ele>
        <time>2010-10-20T15:02:59Z</time>
      </trkpt>
      <trkpt lat="43.13619" lon="3.10681">
        <ele>56.778725</ele>
        <time>2010-10-20T15:02:59Z</time>
      </trkpt>
      <trkpt lat="43.13634" lon="3.10668">
        <ele>56.541962</ele>
        <time>2010-10-20T15:02:59Z</time>
      </trkpt>
      <trkpt lat="43.13656" lon="3.1065">
        <ele>56.018936</ele>
        <time>2010-10-20T15:02:59Z</time>
      </trkpt>
      <trkpt lat="43.13671" lon="3.10634">
        <ele>56.465912</ele>
        <time>2010-10-20T15:02:59Z</time>
      </trkpt>
      <trkpt lat="43.13686" lon="3.10616">
        <ele>56.849945</ele>
        <time>2010-10-20T15:02:59Z</time>
      </trkpt>
      <trkpt lat="43.13697" lon="3.106">
        <ele>55.684776</ele>
        <time>2010-10-20T15:02:59Z</time>
      </trkpt>
      <trkpt lat="43.13708" lon="3.10585">
        <ele>54.769386</ele>
        <time>2010-10-20T15:02:59Z</time>
      </trkpt>
      <trkpt lat="43.13719" lon="3.10575">
        <ele>54.744946</ele>
        <time>2010-10-20T15:02:59Z</time>
      </trkpt>
      <trkpt lat="43.13725" lon="3.10555">
        <ele>54.96936</ele>
        <time>2010-10-20T15:02:59Z</time>
      </trkpt>
      <trkpt lat="43.13732" lon="3.10533">
        <ele>55.013798</ele>
        <time>2010-10-20T15:02:59Z</time>
      </trkpt>
      <trkpt lat="43.1374" lon="3.10514">
        <ele>55</ele>
        <time>2010-10-20T15:02:59Z</time>
      </trkpt>
      <trkpt lat="43.13746" lon="3.10496">
        <ele>55</ele>
        <time>2010-10-20T15:02:59Z</time>
      </trkpt>
      <trkpt lat="43.1375" lon="3.10473">
        <ele>55</ele>
        <time>2010-10-20T15:02:59Z</time>
      </trkpt>
      <trkpt lat="43.13758" lon="3.10456">
        <ele>54.913605</ele>
        <time>2010-10-20T15:02:59Z</time>
      </trkpt>
      <trkpt lat="43.13763" lon="3.10439">
        <ele>53.998669</ele>
        <time>2010-10-20T15:02:59Z</time>
      </trkpt>
      <trkpt lat="43.13772" lon="3.10426">
        <ele>53.346123</ele>
        <time>2010-10-20T15:02:59Z</time>
      </trkpt>
      <trkpt lat="43.13781" lon="3.10414">
        <ele>52.926453</ele>
        <time>2010-10-20T15:02:59Z</time>
      </trkpt>
      <trkpt lat="43.13791" lon="3.10398">
        <ele>52.593391</ele>
        <time>2010-10-20T15:02:59Z</time>
      </trkpt>
      <trkpt lat="43.13802" lon="3.10386">
        <ele>52.499973</ele>
        <time>2010-10-20T15:02:59Z</time>
      </trkpt>
      <trkpt lat="43.13815" lon="3.10389">
        <ele>53.212509</ele>
        <time>2010-10-20T15:02:59Z</time>
      </trkpt>
      <trkpt lat="43.1383" lon="3.10394">
        <ele>53.868595</ele>
        <time>2010-10-20T15:02:59Z</time>
      </trkpt>
      <trkpt lat="43.13839" lon="3.10396">
        <ele>53.950169</ele>
        <time>2010-10-20T15:02:59Z</time>
      </trkpt>
      <trkpt lat="43.13853" lon="3.10388">
        <ele>53.829407</ele>
        <time>2010-10-20T15:02:59Z</time>
      </trkpt>
      <trkpt lat="43.13867" lon="3.10382">
        <ele>53.971924</ele>
        <time>2010-10-20T15:02:59Z</time>
      </trkpt>
      <trkpt lat="43.13883" lon="3.10373">
        <ele>54.753868</ele>
        <time>2010-10-20T15:02:59Z</time>
      </trkpt>
      <trkpt lat="43.13898" lon="3.10377">
        <ele>55.497978</ele>
        <time>2010-10-20T15:02:59Z</time>
      </trkpt>
      <trkpt lat="43.13912" lon="3.10375">
        <ele>56.285793</ele>
        <time>2010-10-20T15:02:59Z</time>
      </trkpt>
      <trkpt lat="43.1392" lon="3.1036">
        <ele>57.604214</ele>
        <time>2010-10-20T15:02:59Z</time>
      </trkpt>
      <trkpt lat="43.13928" lon="3.10346">
        <ele>59.356842</ele>
        <time>2010-10-20T15:02:59Z</time>
      </trkpt>
      <trkpt lat="43.13931" lon="3.10325">
        <ele>60.924366</ele>
        <time>2010-10-20T15:02:59Z</time>
      </trkpt>
      <trkpt lat="43.13933" lon="3.10301">
        <ele>62.40675</ele>
        <time>2010-10-20T15:02:59Z</time>
      </trkpt>
      <trkpt lat="43.13935" lon="3.10279">
        <ele>63.804932</ele>
        <time>2010-10-20T15:02:59Z</time>
      </trkpt>
      <trkpt lat="43.13935" lon="3.10268">
        <ele>63.62645</ele>
        <time>2010-10-20T15:02:59Z</time>
      </trkpt>
      <trkpt lat="43.13934" lon="3.10248">
        <ele>62.65197</ele>
        <time>2010-10-20T15:02:59Z</time>
      </trkpt>
      <trkpt lat="43.13931" lon="3.10237">
        <ele>61.656796</ele>
        <time>2010-10-20T15:02:59Z</time>
      </trkpt>
      <trkpt lat="43.13937" lon="3.10225">
        <ele>62.331474</ele>
        <time>2010-10-20T15:02:59Z</time>
      </trkpt>
      <trkpt lat="43.13947" lon="3.10216">
        <ele>63.77832</ele>
        <time>2010-10-20T15:02:59Z</time>
      </trkpt>
      <trkpt lat="43.1397" lon="3.10195">
        <ele>66.522545</ele>
        <time>2010-10-20T15:02:59Z</time>
      </trkpt>
      <trkpt lat="43.13984" lon="3.10179">
        <ele>67.180313</ele>
        <time>2010-10-20T15:02:59Z</time>
      </trkpt>
      <trkpt lat="43.13991" lon="3.10169">
        <ele>66.754707</ele>
        <time>2010-10-20T15:02:59Z</time>
      </trkpt>
      <trkpt lat="43.13993" lon="3.10159">
        <ele>65.818008</ele>
        <time>2010-10-20T15:02:59Z</time>
      </trkpt>
      <trkpt lat="43.13983" lon="3.10152">
        <ele>64.574554</ele>
        <time>2010-10-20T15:02:59Z</time>
      </trkpt>
      <trkpt lat="43.1396" lon="3.10142">
        <ele>63.56216</ele>
        <time>2010-10-20T15:02:59Z</time>
      </trkpt>
      <trkpt lat="43.13937" lon="3.10134">
        <ele>62.23988</ele>
        <time>2010-10-20T15:02:59Z</time>
      </trkpt>
      <trkpt lat="43.13916" lon="3.10128">
        <ele>60.867306</ele>
        <time>2010-10-20T15:02:59Z</time>
      </trkpt>
      <trkpt lat="43.13904" lon="3.10127">
        <ele>60.593525</ele>
        <time>2010-10-20T15:02:59Z</time>
      </trkpt>
      <trkpt lat="43.13893" lon="3.10142">
        <ele>58.928326</ele>
        <time>2010-10-20T15:02:59Z</time>
      </trkpt>
      <trkpt lat="43.13879" lon="3.1016">
        <ele>56.755203</ele>
        <time>2010-10-20T15:02:59Z</time>
      </trkpt>
      <trkpt lat="43.1387" lon="3.10172">
        <ele>55.970985</ele>
        <time>2010-10-20T15:02:59Z</time>
      </trkpt>
      <trkpt lat="43.13861" lon="3.10174">
        <ele>55.500404</ele>
        <time>2010-10-20T15:02:59Z</time>
      </trkpt>
      <trkpt lat="43.13841" lon="3.10171">
        <ele>54.468151</ele>
        <time>2010-10-20T15:02:59Z</time>
      </trkpt>
      <trkpt lat="43.13819" lon="3.1017">
        <ele>53.249802</ele>
        <time>2010-10-20T15:02:59Z</time>
      </trkpt>
      <trkpt lat="43.13798" lon="3.10168">
        <ele>51.887615</ele>
        <time>2010-10-20T15:02:59Z</time>
      </trkpt>
      <trkpt lat="43.13779" lon="3.10167">
        <ele>50.690109</ele>
        <time>2010-10-20T15:02:59Z</time>
      </trkpt>
      <trkpt lat="43.13758" lon="3.10165">
        <ele>50.147095</ele>
        <time>2010-10-20T15:02:59Z</time>
      </trkpt>
      <trkpt lat="43.13739" lon="3.10162">
        <ele>49.714169</ele>
        <time>2010-10-20T15:02:59Z</time>
      </trkpt>
      <trkpt lat="43.13723" lon="3.10161">
        <ele>49.340984</ele>
        <time>2010-10-20T15:02:59Z</time>
      </trkpt>
      <trkpt lat="43.13708" lon="3.1016">
        <ele>48.963001</ele>
        <time>2010-10-20T15:02:59Z</time>
      </trkpt>
      <trkpt lat="43.13705" lon="3.10174">
        <ele>48.288502</ele>
        <time>2010-10-20T15:02:59Z</time>
      </trkpt>
      <trkpt lat="43.13709" lon="3.10186">
        <ele>47.892628</ele>
        <time>2010-10-20T15:02:59Z</time>
      </trkpt>
      <trkpt lat="43.13712" lon="3.10203">
        <ele>47.35183</ele>
        <time>2010-10-20T15:02:59Z</time>
      </trkpt>
      <trkpt lat="43.13698" lon="3.10205">
        <ele>46.632435</ele>
        <time>2010-10-20T15:02:59Z</time>
      </trkpt>
      <trkpt lat="43.13674" lon="3.1021">
        <ele>46.753201</ele>
        <time>2010-10-20T15:02:59Z</time>
      </trkpt>
      <trkpt lat="43.13669" lon="3.10211">
        <ele>46.9748</ele>
        <time>2010-10-20T15:02:59Z</time>
      </trkpt>
      <trkpt lat="43.1366" lon="3.10206">
        <ele>47.494492</ele>
        <time>2010-10-20T15:02:59Z</time>
      </trkpt>
      <trkpt lat="43.13654" lon="3.102">
        <ele>47.865452</ele>
        <time>2010-10-20T15:02:59Z</time>
      </trkpt>
      <trkpt lat="43.13651" lon="3.10204">
        <ele>47.91275</ele>
        <time>2010-10-20T15:02:59Z</time>
      </trkpt>
      <trkpt lat="43.13647" lon="3.10215">
        <ele>47.525101</ele>
        <time>2010-10-20T15:02:59Z</time>
      </trkpt>
      <trkpt lat="43.13643" lon="3.10222">
        <ele>46.612804</ele>
        <time>2010-10-20T15:02:59Z</time>
      </trkpt>
      <trkpt lat="43.13629" lon="3.10228">
        <ele>45.613087</ele>
        <time>2010-10-20T15:02:59Z</time>
      </trkpt>
      <trkpt lat="43.13612" lon="3.10233">
        <ele>44.343067</ele>
        <time>2010-10-20T15:02:59Z</time>
      </trkpt>
      <trkpt lat="43.13595" lon="3.1024">
        <ele>42.280094</ele>
        <time>2010-10-20T15:02:59Z</time>
      </trkpt>
      <trkpt lat="43.13579" lon="3.10244">
        <ele>39.560658</ele>
        <time>2010-10-20T15:02:59Z</time>
      </trkpt>
      <trkpt lat="43.13579" lon="3.10228">
        <ele>41.037918</ele>
        <time>2010-10-20T15:02:59Z</time>
      </trkpt>
      <trkpt lat="43.13574" lon="3.10199">
        <ele>41.879803</ele>
        <time>2010-10-20T15:02:59Z</time>
      </trkpt>
      <trkpt lat="43.13567" lon="3.10178">
        <ele>41.169319</ele>
        <time>2010-10-20T15:02:59Z</time>
      </trkpt>
      <trkpt lat="43.13564" lon="3.10156">
        <ele>41.171917</ele>
        <time>2010-10-20T15:02:59Z</time>
      </trkpt>
      <trkpt lat="43.13557" lon="3.10131">
        <ele>40.19363</ele>
        <time>2010-10-20T15:02:59Z</time>
      </trkpt>
      <trkpt lat="43.13555" lon="3.1011">
        <ele>39.971779</ele>
        <time>2010-10-20T15:02:59Z</time>
      </trkpt>
      <trkpt lat="43.13557" lon="3.10089">
        <ele>40.00005</ele>
        <time>2010-10-20T15:02:59Z</time>
      </trkpt>
      <trkpt lat="43.13563" lon="3.10075">
        <ele>41.870438</ele>
        <time>2010-10-20T15:02:59Z</time>
      </trkpt>
      <trkpt lat="43.1357" lon="3.10067">
        <ele>43.140228</ele>
        <time>2010-10-20T15:02:59Z</time>
      </trkpt>
      <trkpt lat="43.13577" lon="3.10058">
        <ele>44.242329</ele>
        <time>2010-10-20T15:02:59Z</time>
      </trkpt>
      <trkpt lat="43.13562" lon="3.10058">
        <ele>42.893223</ele>
        <time>2010-10-20T15:02:59Z</time>
      </trkpt>
      <trkpt lat="43.13547" lon="3.10061">
        <ele>42.507896</ele>
        <time>2010-10-20T15:02:59Z</time>
      </trkpt>
      <trkpt lat="43.13526" lon="3.10064">
        <ele>42.888004</ele>
        <time>2010-10-20T15:02:59Z</time>
      </trkpt>
      <trkpt lat="43.13507" lon="3.1006">
        <ele>44.325943</ele>
        <time>2010-10-20T15:02:59Z</time>
      </trkpt>
      <trkpt lat="43.13486" lon="3.10055">
        <ele>47.375031</ele>
        <time>2010-10-20T15:02:59Z</time>
      </trkpt>
      <trkpt lat="43.13467" lon="3.10055">
        <ele>49.499466</ele>
        <time>2010-10-20T15:02:59Z</time>
      </trkpt>
      <trkpt lat="43.13451" lon="3.10052">
        <ele>50.965176</ele>
        <time>2010-10-20T15:02:59Z</time>
      </trkpt>
      <trkpt lat="43.13433" lon="3.10047">
        <ele>52.688145</ele>
        <time>2010-10-20T15:02:59Z</time>
      </trkpt>
      <trkpt lat="43.13414" lon="3.10045">
        <ele>53.794788</ele>
        <time>2010-10-20T15:02:59Z</time>
      </trkpt>
      <trkpt lat="43.13392" lon="3.10042">
        <ele>54.710056</ele>
        <time>2010-10-20T15:02:59Z</time>
      </trkpt>
      <trkpt lat="43.13369" lon="3.10037">
        <ele>55.714531</ele>
        <time>2010-10-20T15:02:59Z</time>
      </trkpt>
      <trkpt lat="43.1335" lon="3.10028">
        <ele>57.02021</ele>
        <time>2010-10-20T15:02:59Z</time>
      </trkpt>
      <trkpt lat="43.1333" lon="3.1002">
        <ele>58.334442</ele>
        <time>2010-10-20T15:02:59Z</time>
      </trkpt>
      <trkpt lat="43.13312" lon="3.10009">
        <ele>58.741936</ele>
        <time>2010-10-20T15:02:59Z</time>
      </trkpt>
      <trkpt lat="43.13291" lon="3.09995">
        <ele>58.177269</ele>
        <time>2010-10-20T15:02:59Z</time>
      </trkpt>
      <trkpt lat="43.13275" lon="3.09982">
        <ele>56.127621</ele>
        <time>2010-10-20T15:02:59Z</time>
      </trkpt>
      <trkpt lat="43.13257" lon="3.09976">
        <ele>52.761696</ele>
        <time>2010-10-20T15:02:59Z</time>
      </trkpt>
      <trkpt lat="43.13241" lon="3.09969">
        <ele>49.319557</ele>
        <time>2010-10-20T15:02:59Z</time>
      </trkpt>
      <trkpt lat="43.13227" lon="3.09961">
        <ele>47.314972</ele>
        <time>2010-10-20T15:02:59Z</time>
      </trkpt>
      <trkpt lat="43.13216" lon="3.09946">
        <ele>48.115257</ele>
        <time>2010-10-20T15:02:59Z</time>
      </trkpt>
      <trkpt lat="43.1321" lon="3.09927">
        <ele>49.712315</ele>
        <time>2010-10-20T15:02:59Z</time>
      </trkpt>
      <trkpt lat="43.13196" lon="3.09923">
        <ele>47.949421</ele>
        <time>2010-10-20T15:02:59Z</time>
      </trkpt>
      <trkpt lat="43.13184" lon="3.09932">
        <ele>45.524933</ele>
        <time>2010-10-20T15:02:59Z</time>
      </trkpt>
      <trkpt lat="43.13182" lon="3.0995">
        <ele>43.299744</ele>
        <time>2010-10-20T15:02:59Z</time>
      </trkpt>
      <trkpt lat="43.13166" lon="3.09953">
        <ele>41.074764</ele>
        <time>2010-10-20T15:02:59Z</time>
      </trkpt>
      <trkpt lat="43.13157" lon="3.09942">
        <ele>41.299274</ele>
        <time>2010-10-20T15:02:59Z</time>
      </trkpt>
      <trkpt lat="43.13144" lon="3.09947">
        <ele>38.720581</ele>
        <time>2010-10-20T15:02:59Z</time>
      </trkpt>
      <trkpt lat="43.13134" lon="3.09945">
        <ele>36.929871</ele>
        <time>2010-10-20T15:02:59Z</time>
      </trkpt>
      <trkpt lat="43.13111" lon="3.0994">
        <ele>32.454384</ele>
        <time>2010-10-20T15:02:59Z</time>
      </trkpt>
      <trkpt lat="43.13099" lon="3.09954">
        <ele>31.510349</ele>
        <time>2010-10-20T15:02:59Z</time>
      </trkpt>
      <trkpt lat="43.13073" lon="3.09964">
        <ele>30.427488</ele>
        <time>2010-10-20T15:02:59Z</time>
      </trkpt>
      <trkpt lat="43.13044" lon="3.09973">
        <ele>28.72521</ele>
        <time>2010-10-20T15:02:59Z</time>
      </trkpt>
      <trkpt lat="43.13022" lon="3.0995">
        <ele>25.93758</ele>
        <time>2010-10-20T15:02:59Z</time>
      </trkpt>
      <trkpt lat="43.13003" lon="3.09935">
        <ele>24.207613</ele>
        <time>2010-10-20T15:02:59Z</time>
      </trkpt>
      <trkpt lat="43.12982" lon="3.09918">
        <ele>21.788866</ele>
        <time>2010-10-20T15:02:59Z</time>
      </trkpt>
      <trkpt lat="43.12961" lon="3.09903">
        <ele>20.471363</ele>
        <time>2010-10-20T15:02:59Z</time>
      </trkpt>
      <trkpt lat="43.12948" lon="3.0989">
        <ele>20.387079</ele>
        <time>2010-10-20T15:02:59Z</time>
      </trkpt>
      <trkpt lat="43.12931" lon="3.09878">
        <ele>20.512129</ele>
        <time>2010-10-20T15:02:59Z</time>
      </trkpt>
      <trkpt lat="43.12918" lon="3.09867">
        <ele>20.914114</ele>
        <time>2010-10-20T15:02:59Z</time>
      </trkpt>
      <trkpt lat="43.12903" lon="3.09851">
        <ele>21.625124</ele>
        <time>2010-10-20T15:02:59Z</time>
      </trkpt>
      <trkpt lat="43.12887" lon="3.09834">
        <ele>22.778303</ele>
        <time>2010-10-20T15:02:59Z</time>
      </trkpt>
      <trkpt lat="43.12878" lon="3.09811">
        <ele>24.188452</ele>
        <time>2010-10-20T15:02:59Z</time>
      </trkpt>
      <trkpt lat="43.1287" lon="3.0979">
        <ele>25.801882</ele>
        <time>2010-10-20T15:02:59Z</time>
      </trkpt>
      <trkpt lat="43.12862" lon="3.09769">
        <ele>27.003771</ele>
        <time>2010-10-20T15:02:59Z</time>
      </trkpt>
      <trkpt lat="43.12856" lon="3.09753">
        <ele>27.143656</ele>
        <time>2010-10-20T15:02:59Z</time>
      </trkpt>
      <trkpt lat="43.12851" lon="3.09743">
        <ele>27.265379</ele>
        <time>2010-10-20T15:02:59Z</time>
      </trkpt>
      <trkpt lat="43.1284" lon="3.09728">
        <ele>27.499809</ele>
        <time>2010-10-20T15:02:59Z</time>
      </trkpt>
      <trkpt lat="43.12828" lon="3.0971">
        <ele>28.252617</ele>
        <time>2010-10-20T15:02:59Z</time>
      </trkpt>
      <trkpt lat="43.12819" lon="3.097">
        <ele>28.783051</ele>
        <time>2010-10-20T15:02:59Z</time>
      </trkpt>
      <trkpt lat="43.12814" lon="3.09691">
        <ele>29.179588</ele>
        <time>2010-10-20T15:02:59Z</time>
      </trkpt>
      <trkpt lat="43.12812" lon="3.09675">
        <ele>28.293869</ele>
        <time>2010-10-20T15:02:59Z</time>
      </trkpt>
      <trkpt lat="43.12809" lon="3.09659">
        <ele>28.105724</ele>
        <time>2010-10-20T15:02:59Z</time>
      </trkpt>
      <trkpt lat="43.12807" lon="3.09644">
        <ele>28.718718</ele>
        <time>2010-10-20T15:02:59Z</time>
      </trkpt>
      <trkpt lat="43.12807" lon="3.09634">
        <ele>30.147291</ele>
        <time>2010-10-20T15:02:59Z</time>
      </trkpt>
      <trkpt lat="43.128" lon="3.09622">
        <ele>33.761627</ele>
        <time>2010-10-20T15:02:59Z</time>
      </trkpt>
      <trkpt lat="43.12793" lon="3.09604">
        <ele>36.750389</ele>
        <time>2010-10-20T15:02:59Z</time>
      </trkpt>
      <trkpt lat="43.12787" lon="3.09591">
        <ele>37.929756</ele>
        <time>2010-10-20T15:02:59Z</time>
      </trkpt>
      <trkpt lat="43.12782" lon="3.09582">
        <ele>38.63636</ele>
        <time>2010-10-20T15:02:59Z</time>
      </trkpt>
      <trkpt lat="43.12781" lon="3.09569">
        <ele>39.684052</ele>
        <time>2010-10-20T15:02:59Z</time>
      </trkpt>
      <trkpt lat="43.12781" lon="3.09552">
        <ele>41.016853</ele>
        <time>2010-10-20T15:02:59Z</time>
      </trkpt>
      <trkpt lat="43.12784" lon="3.09541">
        <ele>42.278374</ele>
        <time>2010-10-20T15:02:59Z</time>
      </trkpt>
      <trkpt lat="43.12786" lon="3.0952">
        <ele>45.34679</ele>
        <time>2010-10-20T15:02:59Z</time>
      </trkpt>
      <trkpt lat="43.1278" lon="3.09502">
        <ele>48.718235</ele>
        <time>2010-10-20T15:02:59Z</time>
      </trkpt>
      <trkpt lat="43.12762" lon="3.09482">
        <ele>47.534748</ele>
        <time>2010-10-20T15:02:59Z</time>
      </trkpt>
      <trkpt lat="43.12747" lon="3.09468">
        <ele>44.89172</ele>
        <time>2010-10-20T15:02:59Z</time>
      </trkpt>
      <trkpt lat="43.12729" lon="3.09469">
        <ele>40.167812</ele>
        <time>2010-10-20T15:02:59Z</time>
      </trkpt>
      <trkpt lat="43.12701" lon="3.09468">
        <ele>33.87936</ele>
        <time>2010-10-20T15:02:59Z</time>
      </trkpt>
      <trkpt lat="43.12692" lon="3.09454">
        <ele>32.949551</ele>
        <time>2010-10-20T15:02:59Z</time>
      </trkpt>
      <trkpt lat="43.12699" lon="3.09431">
        <ele>35.024342</ele>
        <time>2010-10-20T15:02:59Z</time>
      </trkpt>
      <trkpt lat="43.12704" lon="3.09417">
        <ele>36.462101</ele>
        <time>2010-10-20T15:02:59Z</time>
      </trkpt>
      <trkpt lat="43.12701" lon="3.09399">
        <ele>36.592079</ele>
        <time>2010-10-20T15:02:59Z</time>
      </trkpt>
      <trkpt lat="43.12694" lon="3.09379">
        <ele>35.676659</ele>
        <time>2010-10-20T15:02:59Z</time>
      </trkpt>
      <trkpt lat="43.12693" lon="3.09362">
        <ele>35.798443</ele>
        <time>2010-10-20T15:02:59Z</time>
      </trkpt>
      <trkpt lat="43.12692" lon="3.09339">
        <ele>35.978767</ele>
        <time>2010-10-20T15:02:59Z</time>
      </trkpt>
      <trkpt lat="43.12701" lon="3.09314">
        <ele>37.379662</ele>
        <time>2010-10-20T15:02:59Z</time>
      </trkpt>
      <trkpt lat="43.12709" lon="3.09295">
        <ele>38.805779</ele>
        <time>2010-10-20T15:02:59Z</time>
      </trkpt>
      <trkpt lat="43.12716" lon="3.09279">
        <ele>41.754414</ele>
        <time>2010-10-20T15:02:59Z</time>
      </trkpt>
      <trkpt lat="43.12727" lon="3.09264">
        <ele>45.799095</ele>
        <time>2010-10-20T15:02:59Z</time>
      </trkpt>
      <trkpt lat="43.12735" lon="3.09246">
        <ele>47.237301</ele>
        <time>2010-10-20T15:02:59Z</time>
      </trkpt>
      <trkpt lat="43.1274" lon="3.09229">
        <ele>46.948887</ele>
        <time>2010-10-20T15:02:59Z</time>
      </trkpt>
      <trkpt lat="43.12741" lon="3.09215">
        <ele>45.507824</ele>
        <time>2010-10-20T15:02:59Z</time>
      </trkpt>
      <trkpt lat="43.12729" lon="3.09203">
        <ele>39.292694</ele>
        <time>2010-10-20T15:02:59Z</time>
      </trkpt>
      <trkpt lat="43.12718" lon="3.09197">
        <ele>34.63459</ele>
        <time>2010-10-20T15:02:59Z</time>
      </trkpt>
      <trkpt lat="43.12707" lon="3.09186">
        <ele>30.543737</ele>
        <time>2010-10-20T15:02:59Z</time>
      </trkpt>
      <trkpt lat="43.12694" lon="3.09181">
        <ele>28.542164</ele>
        <time>2010-10-20T15:02:59Z</time>
      </trkpt>
      <trkpt lat="43.12683" lon="3.09176">
        <ele>26.814095</ele>
        <time>2010-10-20T15:02:59Z</time>
      </trkpt>
      <trkpt lat="43.12673" lon="3.09165">
        <ele>25.188084</ele>
        <time>2010-10-20T15:02:59Z</time>
      </trkpt>
      <trkpt lat="43.12657" lon="3.09185">
        <ele>24.165602</ele>
        <time>2010-10-20T15:02:59Z</time>
      </trkpt>
      <trkpt lat="43.12637" lon="3.09197">
        <ele>23.230709</ele>
        <time>2010-10-20T15:02:59Z</time>
      </trkpt>
      <trkpt lat="43.1262" lon="3.09211">
        <ele>22.1199</ele>
        <time>2010-10-20T15:02:59Z</time>
      </trkpt>
      <trkpt lat="43.12605" lon="3.09229">
        <ele>21.933159</ele>
        <time>2010-10-20T15:02:59Z</time>
      </trkpt>
      <trkpt lat="43.12588" lon="3.09235">
        <ele>21.784325</ele>
        <time>2010-10-20T15:02:59Z</time>
      </trkpt>
      <trkpt lat="43.12574" lon="3.09242">
        <ele>21.631256</ele>
        <time>2010-10-20T15:02:59Z</time>
      </trkpt>
      <trkpt lat="43.12562" lon="3.09267">
        <ele>22.121481</ele>
        <time>2010-10-20T15:02:59Z</time>
      </trkpt>
      <trkpt lat="43.12556" lon="3.09285">
        <ele>21.950197</ele>
        <time>2010-10-20T15:02:59Z</time>
      </trkpt>
      <trkpt lat="43.1255" lon="3.09305">
        <ele>21.617479</ele>
        <time>2010-10-20T15:02:59Z</time>
      </trkpt>
      <trkpt lat="43.12544" lon="3.09325">
        <ele>20.898329</ele>
        <time>2010-10-20T15:02:59Z</time>
      </trkpt>
      <trkpt lat="43.12537" lon="3.09341">
        <ele>20.198492</ele>
        <time>2010-10-20T15:02:59Z</time>
      </trkpt>
      <trkpt lat="43.12532" lon="3.09357">
        <ele>20.113815</ele>
        <time>2010-10-20T15:02:59Z</time>
      </trkpt>
      <trkpt lat="43.12508" lon="3.09364">
        <ele>20.562397</ele>
        <time>2010-10-20T15:02:59Z</time>
      </trkpt>
      <trkpt lat="43.12484" lon="3.0937">
        <ele>20.839535</ele>
        <time>2010-10-20T15:02:59Z</time>
      </trkpt>
      <trkpt lat="43.12468" lon="3.0938">
        <ele>20.001179</ele>
        <time>2010-10-20T15:02:59Z</time>
      </trkpt>
      <trkpt lat="43.12441" lon="3.09389">
        <ele>18.861679</ele>
        <time>2010-10-20T15:02:59Z</time>
      </trkpt>
      <trkpt lat="43.12422" lon="3.09391">
        <ele>18.890034</ele>
        <time>2010-10-20T15:02:59Z</time>
      </trkpt>
      <trkpt lat="43.12398" lon="3.09396">
        <ele>18.952393</ele>
        <time>2010-10-20T15:02:59Z</time>
      </trkpt>
      <trkpt lat="43.12379" lon="3.094">
        <ele>18.883757</ele>
        <time>2010-10-20T15:02:59Z</time>
      </trkpt>
      <trkpt lat="43.12361" lon="3.09406">
        <ele>18.593283</ele>
        <time>2010-10-20T15:02:59Z</time>
      </trkpt>
      <trkpt lat="43.12342" lon="3.09407">
        <ele>18.324938</ele>
        <time>2010-10-20T15:02:59Z</time>
      </trkpt>
      <trkpt lat="43.12321" lon="3.09404">
        <ele>17.974781</ele>
        <time>2010-10-20T15:02:59Z</time>
      </trkpt>
      <trkpt lat="43.123" lon="3.09395">
        <ele>17.972599</ele>
        <time>2010-10-20T15:02:59Z</time>
      </trkpt>
      <trkpt lat="43.1228" lon="3.09384">
        <ele>18.215372</ele>
        <time>2010-10-20T15:02:59Z</time>
      </trkpt>
      <trkpt lat="43.12259" lon="3.0937">
        <ele>18.259968</ele>
        <time>2010-10-20T15:02:59Z</time>
      </trkpt>
      <trkpt lat="43.12238" lon="3.09359">
        <ele>18.00827</ele>
        <time>2010-10-20T15:02:59Z</time>
      </trkpt>
      <trkpt lat="43.12215" lon="3.09352">
        <ele>17.442589</ele>
        <time>2010-10-20T15:02:59Z</time>
      </trkpt>
      <trkpt lat="43.122" lon="3.09351">
        <ele>16.800116</ele>
        <time>2010-10-20T15:02:59Z</time>
      </trkpt>
      <trkpt lat="43.12184" lon="3.09359">
        <ele>15.799714</ele>
        <time>2010-10-20T15:02:59Z</time>
      </trkpt>
      <trkpt lat="43.12168" lon="3.09362">
        <ele>15.012972</ele>
        <time>2010-10-20T15:02:59Z</time>
      </trkpt>
      <trkpt lat="43.12146" lon="3.09355">
        <ele>14.576664</ele>
        <time>2010-10-20T15:02:59Z</time>
      </trkpt>
      <trkpt lat="43.12123" lon="3.09351">
        <ele>13.960864</ele>
        <time>2010-10-20T15:02:59Z</time>
      </trkpt>
      <trkpt lat="43.12101" lon="3.0934">
        <ele>12.179453</ele>
        <time>2010-10-20T15:02:59Z</time>
      </trkpt>
      <trkpt lat="43.12089" lon="3.09336">
        <ele>11.01435</ele>
        <time>2010-10-20T15:02:59Z</time>
      </trkpt>
      <trkpt lat="43.1208" lon="3.09351">
        <ele>10.05022</ele>
        <time>2010-10-20T15:02:59Z</time>
      </trkpt>
      <trkpt lat="43.12069" lon="3.09364">
        <ele>10</ele>
        <time>2010-10-20T15:02:59Z</time>
      </trkpt>
      <trkpt lat="43.12052" lon="3.09365">
        <ele>10</ele>
        <time>2010-10-20T15:02:59Z</time>
      </trkpt>
      <trkpt lat="43.12034" lon="3.09362">
        <ele>10</ele>
        <time>2010-10-20T15:02:59Z</time>
      </trkpt>
      <trkpt lat="43.12022" lon="3.09368">
        <ele>9.898256</ele>
        <time>2010-10-20T15:02:59Z</time>
      </trkpt>
      <trkpt lat="43.12018" lon="3.09387">
        <ele>9.969363</ele>
        <time>2010-10-20T15:02:59Z</time>
      </trkpt>
      <trkpt lat="43.12053" lon="3.09431">
        <ele>10.265653</ele>
        <time>2010-10-20T15:02:59Z</time>
      </trkpt>
      <trkpt lat="43.1207" lon="3.09452">
        <ele>10.782017</ele>
        <time>2010-10-20T15:02:59Z</time>
      </trkpt>
      <trkpt lat="43.12084" lon="3.09467">
        <ele>11.026577</ele>
        <time>2010-10-20T15:02:59Z</time>
      </trkpt>
      <trkpt lat="43.12089" lon="3.09483">
        <ele>11.109796</ele>
        <time>2010-10-20T15:02:59Z</time>
      </trkpt>
      <trkpt lat="43.12088" lon="3.09496">
        <ele>11.15461</ele>
        <time>2010-10-20T15:02:59Z</time>
      </trkpt>
      <trkpt lat="43.12083" lon="3.09507">
        <ele>11.086182</ele>
        <time>2010-10-20T15:02:59Z</time>
      </trkpt>
      <trkpt lat="43.12089" lon="3.09521">
        <ele>11.249914</ele>
        <time>2010-10-20T15:02:59Z</time>
      </trkpt>
      <trkpt lat="43.12105" lon="3.09546">
        <ele>11.60007</ele>
        <time>2010-10-20T15:02:59Z</time>
      </trkpt>
      <trkpt lat="43.12121" lon="3.09591">
        <ele>11.962594</ele>
        <time>2010-10-20T15:02:59Z</time>
      </trkpt>
      <trkpt lat="43.12131" lon="3.09623">
        <ele>12.187492</ele>
        <time>2010-10-20T15:02:59Z</time>
      </trkpt>
      <trkpt lat="43.12138" lon="3.09651">
        <ele>12.162404</ele>
        <time>2010-10-20T15:02:59Z</time>
      </trkpt>
      <trkpt lat="43.12144" lon="3.09684">
        <ele>11.762358</ele>
        <time>2010-10-20T15:02:59Z</time>
      </trkpt>
      <trkpt lat="43.12152" lon="3.09717">
        <ele>11.687444</ele>
        <time>2010-10-20T15:02:59Z</time>
      </trkpt>
      <trkpt lat="43.12154" lon="3.09746">
        <ele>11.724986</ele>
        <time>2010-10-20T15:02:59Z</time>
      </trkpt>
      <trkpt lat="43.12154" lon="3.09788">
        <ele>11.300039</ele>
        <time>2010-10-20T15:02:59Z</time>
      </trkpt>
      <trkpt lat="43.12155" lon="3.09818">
        <ele>10.837424</ele>
        <time>2010-10-20T15:02:59Z</time>
      </trkpt>
      <trkpt lat="43.12149" lon="3.0986">
        <ele>10.624905</ele>
        <time>2010-10-20T15:02:59Z</time>
      </trkpt>
      <trkpt lat="43.12146" lon="3.09884">
        <ele>10.575006</ele>
        <time>2010-10-20T15:02:59Z</time>
      </trkpt>
      <trkpt lat="43.1214" lon="3.09929">
        <ele>10.437452</ele>
        <time>2010-10-20T15:02:59Z</time>
      </trkpt>
      <trkpt lat="43.12136" lon="3.09965">
        <ele>10.03759</ele>
        <time>2010-10-20T15:02:59Z</time>
      </trkpt>
      <trkpt lat="43.12128" lon="3.1">
        <ele>9.300133</ele>
        <time>2010-10-20T15:02:59Z</time>
      </trkpt>
      <trkpt lat="43.12117" lon="3.10035">
        <ele>8.475153</ele>
        <time>2010-10-20T15:02:59Z</time>
      </trkpt>
      <trkpt lat="43.1211" lon="3.10071">
        <ele>7.74989</ele>
        <time>2010-10-20T15:02:59Z</time>
      </trkpt>
      <trkpt lat="43.12101" lon="3.10104">
        <ele>7.025014</ele>
        <time>2010-10-20T15:02:59Z</time>
      </trkpt>
      <trkpt lat="43.12096" lon="3.10121">
        <ele>6.637465</ele>
        <time>2010-10-20T15:02:59Z</time>
      </trkpt>
      <trkpt lat="43.12087" lon="3.10143">
        <ele>6.2325</ele>
        <time>2010-10-20T15:02:59Z</time>
      </trkpt>
      <trkpt lat="43.12078" lon="3.1013">
        <ele>6.085267</ele>
        <time>2010-10-20T15:02:59Z</time>
      </trkpt>
      <trkpt lat="43.1206" lon="3.10106">
        <ele>6.362452</ele>
        <time>2010-10-20T15:02:59Z</time>
      </trkpt>
      <trkpt lat="43.12056" lon="3.10112">
        <ele>6.262448</ele>
        <time>2010-10-20T15:02:59Z</time>
      </trkpt>
      <trkpt lat="43.12046" lon="3.10135">
        <ele>5.929692</ele>
        <time>2010-10-20T15:02:59Z</time>
      </trkpt>
      <trkpt lat="43.1203" lon="3.10158">
        <ele>5.524591</ele>
        <time>2010-10-20T15:02:59Z</time>
      </trkpt>
      <trkpt lat="43.12013" lon="3.10185">
        <ele>5.048754</ele>
        <time>2010-10-20T15:02:59Z</time>
      </trkpt>
      <trkpt lat="43.11993" lon="3.10212">
        <ele>5</ele>
        <time>2010-10-20T15:02:59Z</time>
      </trkpt>
      <trkpt lat="43.11971" lon="3.10251">
        <ele>4.728203</ele>
        <time>2010-10-20T15:02:59Z</time>
      </trkpt>
      <trkpt lat="43.11955" lon="3.1027">
        <ele>4.248477</ele>
        <time>2010-10-20T15:02:59Z</time>
      </trkpt>
      <trkpt lat="43.11937" lon="3.10293">
        <ele>4</ele>
        <time>2010-10-20T15:02:59Z</time>
      </trkpt>
      <trkpt lat="43.1192" lon="3.10314">
        <ele>3.97497</ele>
        <time>2010-10-20T15:02:59Z</time>
      </trkpt>
      <trkpt lat="43.11904" lon="3.10339">
        <ele>3.653146</ele>
        <time>2010-10-20T15:02:59Z</time>
      </trkpt>
      <trkpt lat="43.11883" lon="3.1036">
        <ele>3.149921</ele>
        <time>2010-10-20T15:02:59Z</time>
      </trkpt>
      <trkpt lat="43.11864" lon="3.10378">
        <ele>3</ele>
        <time>2010-10-20T15:02:59Z</time>
      </trkpt>
      <trkpt lat="43.11851" lon="3.10392">
        <ele>3</ele>
        <time>2010-10-20T15:02:59Z</time>
      </trkpt>
      <trkpt lat="43.1183" lon="3.10405">
        <ele>2.789113</ele>
        <time>2010-10-20T15:02:59Z</time>
      </trkpt>
      <trkpt lat="43.11818" lon="3.10413">
        <ele>2.553154</ele>
        <time>2010-10-20T15:02:59Z</time>
      </trkpt>
      <trkpt lat="43.11802" lon="3.10413">
        <ele>2.296261</ele>
        <time>2010-10-20T15:02:59Z</time>
      </trkpt>
      <trkpt lat="43.11781" lon="3.10409">
        <ele>2.190305</ele>
        <time>2010-10-20T15:02:59Z</time>
      </trkpt>
      <trkpt lat="43.11763" lon="3.104">
        <ele>2.064043</ele>
        <time>2010-10-20T15:02:59Z</time>
      </trkpt>
      <trkpt lat="43.11741" lon="3.1038">
        <ele>2</ele>
        <time>2010-10-20T15:02:59Z</time>
      </trkpt>
      <trkpt lat="43.11719" lon="3.10363">
        <ele>2.100015</ele>
        <time>2010-10-20T15:02:59Z</time>
      </trkpt>
      <trkpt lat="43.11698" lon="3.1035">
        <ele>2.210888</ele>
        <time>2010-10-20T15:02:59Z</time>
      </trkpt>
      <trkpt lat="43.1168" lon="3.1034">
        <ele>2.127212</ele>
        <time>2010-10-20T15:02:59Z</time>
      </trkpt>
      <trkpt lat="43.11652" lon="3.10332">
        <ele>2</ele>
        <time>2010-10-20T15:02:59Z</time>
      </trkpt>
      <trkpt lat="43.11641" lon="3.10326">
        <ele>2</ele>
        <time>2010-10-20T15:02:59Z</time>
      </trkpt>
      <trkpt lat="43.11638" lon="3.10314">
        <ele>2</ele>
        <time>2010-10-20T15:02:59Z</time>
      </trkpt>
      <trkpt lat="43.11636" lon="3.10282">
        <ele>2.399956</ele>
        <time>2010-10-20T15:02:59Z</time>
      </trkpt>
      <trkpt lat="43.1163" lon="3.10248">
        <ele>2.950028</ele>
        <time>2010-10-20T15:02:59Z</time>
      </trkpt>
      <trkpt lat="43.11623" lon="3.10203">
        <ele>2.991448</ele>
        <time>2010-10-20T15:02:59Z</time>
      </trkpt>
      <trkpt lat="43.11618" lon="3.10164">
        <ele>2.850012</ele>
        <time>2010-10-20T15:02:59Z</time>
      </trkpt>
      <trkpt lat="43.11608" lon="3.10144">
        <ele>2.637586</ele>
        <time>2010-10-20T15:02:59Z</time>
      </trkpt>
      <trkpt lat="43.11597" lon="3.10115">
        <ele>2.374948</ele>
        <time>2010-10-20T15:02:59Z</time>
      </trkpt>
      <trkpt lat="43.1158" lon="3.10077">
        <ele>2.000109</ele>
        <time>2010-10-20T15:02:59Z</time>
      </trkpt>
      <trkpt lat="43.11573" lon="3.1005">
        <ele>1.971587</ele>
        <time>2010-10-20T15:02:59Z</time>
      </trkpt>
      <trkpt lat="43.11565" lon="3.10009">
        <ele>1.717252</ele>
        <time>2010-10-20T15:02:59Z</time>
      </trkpt>
      <trkpt lat="43.11559" lon="3.09963">
        <ele>1.512414</ele>
        <time>2010-10-20T15:02:59Z</time>
      </trkpt>
      <trkpt lat="43.11553" lon="3.09913">
        <ele>1.374968</ele>
        <time>2010-10-20T15:02:59Z</time>
      </trkpt>
      <trkpt lat="43.11547" lon="3.09862">
        <ele>1.475053</ele>
        <time>2010-10-20T15:02:59Z</time>
      </trkpt>
      <trkpt lat="43.11542" lon="3.09801">
        <ele>2.112403</ele>
        <time>2010-10-20T15:02:59Z</time>
      </trkpt>
      <trkpt lat="43.11538" lon="3.09757">
        <ele>2.012553</ele>
        <time>2010-10-20T15:02:59Z</time>
      </trkpt>
      <trkpt lat="43.11535" lon="3.09701">
        <ele>1.950076</ele>
        <time>2010-10-20T15:02:59Z</time>
      </trkpt>
      <trkpt lat="43.11537" lon="3.09655">
        <ele>1.990001</ele>
        <time>2010-10-20T15:02:59Z</time>
      </trkpt>
      <trkpt lat="43.11536" lon="3.09612">
        <ele>2</ele>
        <time>2010-10-20T15:02:59Z</time>
      </trkpt>
      <trkpt lat="43.11537" lon="3.09585">
        <ele>2</ele>
        <time>2010-10-20T15:02:59Z</time>
      </trkpt>
      <trkpt lat="43.11547" lon="3.09557">
        <ele>2.187402</ele>
        <time>2010-10-20T15:02:59Z</time>
      </trkpt>
      <trkpt lat="43.1156" lon="3.0952">
        <ele>2.475033</ele>
        <time>2010-10-20T15:02:59Z</time>
      </trkpt>
      <trkpt lat="43.11561" lon="3.09495">
        <ele>2.487529</ele>
        <time>2010-10-20T15:02:59Z</time>
      </trkpt>
      <trkpt lat="43.11557" lon="3.09476">
        <ele>2.39992</ele>
        <time>2010-10-20T15:02:59Z</time>
      </trkpt>
      <trkpt lat="43.11548" lon="3.09453">
        <ele>2.187606</ele>
        <time>2010-10-20T15:02:59Z</time>
      </trkpt>
      <trkpt lat="43.1153" lon="3.0943">
        <ele>2</ele>
        <time>2010-10-20T15:02:59Z</time>
      </trkpt>
      <trkpt lat="43.11498" lon="3.09389">
        <ele>2</ele>
        <time>2010-10-20T15:02:59Z</time>
      </trkpt>
      <trkpt lat="43.11459" lon="3.09342">
        <ele>2</ele>
        <time>2010-10-20T15:02:59Z</time>
      </trkpt>
      <trkpt lat="43.11433" lon="3.09305">
        <ele>1.612469</ele>
        <time>2010-10-20T15:02:59Z</time>
      </trkpt>
      <trkpt lat="43.11432" lon="3.09268">
        <ele>1.587435</ele>
        <time>2010-10-20T15:02:59Z</time>
      </trkpt>
      <trkpt lat="43.11424" lon="3.09237">
        <ele>1.232466</ele>
        <time>2010-10-20T15:02:59Z</time>
      </trkpt>
      <trkpt lat="43.11404" lon="3.09207">
        <ele>0.949926</ele>
        <time>2010-10-20T15:02:59Z</time>
      </trkpt>
      <trkpt lat="43.11381" lon="3.09197">
        <ele>0.403766</ele>
        <time>2010-10-20T15:02:59Z</time>
      </trkpt>
      <trkpt lat="43.11329" lon="3.09177">
        <ele>1.4</ele>
        <time>2010-10-20T15:02:59Z</time>
      </trkpt>
      <trkpt lat="43.11291" lon="3.0916">
        <ele>0.587493</ele>
        <time>2010-10-20T15:02:59Z</time>
      </trkpt>
      <trkpt lat="43.1125" lon="3.09144">
        <ele>1</ele>
        <time>2010-10-20T15:02:59Z</time>
      </trkpt>
      <trkpt lat="43.11197" lon="3.09124">
        <ele>1.548515</ele>
        <time>2010-10-20T15:02:59Z</time>
      </trkpt>
      <trkpt lat="43.11162" lon="3.0911">
        <ele>1.587473</ele>
        <time>2010-10-20T15:02:59Z</time>
      </trkpt>
      <trkpt lat="43.11132" lon="3.09099">
        <ele>1.412456</ele>
        <time>2010-10-20T15:02:59Z</time>
      </trkpt>
      <trkpt lat="43.11092" lon="3.09083">
        <ele>1.162564</ele>
        <time>2010-10-20T15:02:59Z</time>
      </trkpt>
      <trkpt lat="43.11056" lon="3.0907">
        <ele>0.962434</ele>
        <time>2010-10-20T15:02:59Z</time>
      </trkpt>
      <trkpt lat="43.11011" lon="3.09051">
        <ele>0.662441</ele>
        <time>2010-10-20T15:02:59Z</time>
      </trkpt>
      <trkpt lat="43.10974" lon="3.0904">
        <ele>0.170585</ele>
        <time>2010-10-20T15:02:59Z</time>
      </trkpt>
      <trkpt lat="43.10942" lon="3.09026">
        <ele>0.276634</ele>
        <time>2010-10-20T15:02:59Z</time>
      </trkpt>
      <trkpt lat="43.10905" lon="3.09013">
        <ele>0.949951</ele>
        <time>2010-10-20T15:02:59Z</time>
      </trkpt>
      <trkpt lat="43.10872" lon="3.09">
        <ele>0.850004</ele>
        <time>2010-10-20T15:02:59Z</time>
      </trkpt>
      <trkpt lat="43.10844" lon="3.0899">
        <ele>0.300725</ele>
        <time>2010-10-20T15:02:59Z</time>
      </trkpt>
    </trkseg>
  </trk>
</gpx>